Wind_Speed
3 4 2 2 4 4 2 2 3 3 4 5 4 4 4 3 5 4 4 5 1 1 3 3 4 7 7 7 8 9 9 10 11 11 10 11 10 9 9 9 10 10 11 11 10 9 8 7 6 5 5 5 5 5 5 6 6 6 6 6 5 4 3 3 3 3 4 4 5 6 6 7 7 8 9 10 10 10 11 11 11 13 13 14 17 17
4 4 2 5 6 4 1 2 1 2 4 4 4 4 3 3 5 5 3 4 1 2 3 3 3 7 7 7 8 9 9 10 12 12 12 12 11 9 9 10 10 10 11 11 10 9 8 7 6 6 6 5 6 5 5 6 7 7 7 6 5 4 3 3 3 3 4 4 5 6 6 7 7 8 8 8 9 9 10 12 12 13 14 15 17 18
4 2 4 5 3 2 2 4 5 3 3 3 3 2 3 4 5 5 4 3 2 2 4 5 3 5 6 6 7 9 9 9 12 12 11 12 12 11 10 10 11 11 11 10 10 9 8 7 6 6 6 6 6 6 6 7 8 8 7 6 5 5 4 3 4 4 4 5 6 6 7 7 7 8 8 8 9 9 9 10 11 13 14 14 14 14
2 2 5 4 3 3 4 6 6 4 3 3 3 2 4 4 2 3 4 4 2 1 3 5 4 4 5 5 6 8 9 8 10 10 10 11 11 11 11 11 11 12 12 12 11 10 9 8 7 7 7 7 7 7 7 8 9 8 7 7 6 6 6 6 6 6 5 6 6 7 8 8 7 7 8 8 8 8 9 10 11 14 14 13 13 13
3 5 5 2 2 2 4 7 7 3 3 4 4 3 4 4 1 3 5 6 4 3 4 5 5 4 7 8 7 8 9 9 10 11 11 11 11 11 11 11 11 12 12 13 12 11 10 9 8 8 8 7 7 8 9 9 9 9 9 9 8 8 8 8 8 7 6 7 7 7 8 8 8 8 7 7 8 8 9 10 11 13 13 12 12 13
2 4 2 2 3 3 3 6 5 2 2 4 4 4 4 4 2 4 6 6 4 5 5 5 3 4 8 9 8 9 10 10 11 13 13 12 12 12 11 11 12 12 12 12 13 12 12 10 10 9 8 8 8 9 10 11 11 11 11 11 10 10 9 9 10 9 8 8 8 8 9 9 8 8 8 8 8 9 10 11 11 12 12 11 11 11
2 2 1 3 3 3 3 3 3 3 1 4 4 3 5 5 5 5 4 3 1 4 4 4 3 2 7 9 10 10 11 11 12 13 15 15 15 14 13 13 13 13 13 13 12 13 13 12 11 10 9 9 9 10 11 12 12 11 11 11 11 11 10 11 12 11 9 9 8 9 10 10 9 9 9 9 10 11 11 12 11 11 11 10 10 10
1 1 2 3 3 4 2 1 3 4 4 4 6 5 5 6 6 5 3 1 2 2 4 4 4 2 3 6 9 12 12 12 13 13 14 16 17 16 15 14 14 15 14 13 13 13 13 13 12 12 10 10 10 11 11 11 12 11 10 10 10 10 10 11 11 10 9 9 9 10 11 11 11 12 11 11 12 12 11 10 10 9 8 8 8 9
2 1 1 3 3 2 1 2 5 3 3 6 7 6 5 6 6 3 2 1 2 1 3 3 3 3 3 6 7 10 11 12 13 14 15 17 18 18 17 16 15 16 15 14 14 14 14 14 13 12 10 11 12 12 12 11 11 11 10 9 9 9 9 9 9 9 9 10 10 10 10 11 12 12 12 11 11 11 9 9 8 7 6 7 8 8
2 2 1 2 1 2 3 4 5 2 3 7 8 5 5 5 5 3 2 1 1 2 2 3 2 3 2 6 6 8 9 11 12 12 14 18 20 19 18 18 17 16 16 15 14 14 15 15 15 13 11 11 13 12 12 12 11 11 9 8 8 8 7 7 8 8 10 11 9 9 9 9 10 11 11 10 10 10 8 7 6 5 5 6 6 8
5 3 1 0 2 5 7 7 4 2 7 11 9 6 6 5 4 3 2 1 3 2 4 2 2 5 0 4 5 6 7 8 9 10 13 17 20 20 19 19 18 17 17 16 15 15 14 15 15 14 13 13 13 13 13 12 12 10 9 8 8 8 7 6 6 6 8 10 9 8 8 8 9 10 10 9 9 9 8 7 5 4 5 5 7 10
6 5 3 3 4 7 9 8 5 7 11 10 5 4 4 4 4 3 3 3 2 3 4 1 2 5 3 2 4 5 6 6 6 7 12 17 20 21 20 20 19 18 17 16 16 15 15 16 16 16 15 15 14 14 14 13 12 11 9 8 8 7 6 5 5 5 6 7 7 8 8 7 7 8 8 8 8 7 7 7 5 4 5 6 8 11
6 4 5 5 6 8 8 7 6 7 8 6 3 4 4 1 1 1 1 1 1 5 3 0 2 4 3 2 3 5 6 6 5 5 9 14 20 22 21 21 20 19 18 17 16 16 17 18 18 18 17 16 16 15 15 14 13 12 10 9 8 7 6 5 5 5 5 5 6 6 6 6 6 6 7 7 6 5 5 4 4 4 5 7 9 11
4 5 7 7 5 8 7 2 4 4 5 6 3 3 3 2 2 2 2 2 3 4 3 1 3 3 1 2 2 3 4 4 6 7 7 10 16 20 22 21 21 20 19 18 18 17 17 18 19 19 18 18 17 16 16 15 14 13 11 10 9 8 7 6 5 5 4 4 4 5 4 4 5 4 4 5 4 3 2 2 3 4 6 8 11 12
1 2 7 5 4 8 7 3 2 1 3 3 2 4 3 2 3 4 3 4 4 2 3 3 3 3 2 2 2 3 3 3 5 7 9 9 11 16 20 21 21 21 20 19 18 18 17 18 19 19 19 18 17 17 17 16 15 14 12 11 10 9 8 7 6 5 4 4 3 4 4 3 4 3 2 2 2 1 0 2 4 6 8 10 12 14
3 2 6 3 2 6 6 1 2 2 2 2 2 3 2 3 3 3 2 4 4 2 1 2 2 3 2 4 3 3 5 5 5 6 10 11 11 13 18 21 21 21 20 20 19 18 17 17 18 18 18 18 16 17 18 17 16 15 14 12 11 10 9 8 7 6 5 4 3 3 3 2 3 2 1 1 1 2 2 3 6 8 9 11 14 16
2 3 7 4 3 6 4 2 3 3 1 3 3 1 2 3 4 2 0 1 3 2 1 1 2 1 3 3 2 3 6 5 5 6 9 13 13 13 16 19 21 21 21 20 19 19 18 17 18 17 17 17 17 17 18 18 17 16 15 13 12 11 10 9 8 6 5 4 2 2 1 1 1 1 1 2 3 3 4 5 7 9 11 13 15 17
2 2 6 5 5 5 3 3 4 1 2 2 1 2 2 1 3 3 1 1 2 2 2 2 4 3 1 0 2 4 5 5 5 6 9 12 14 14 15 18 20 21 21 20 19 19 18 18 17 17 16 17 17 17 18 19 18 17 16 14 13 12 11 10 8 7 6 4 3 1 0 1 2 2 3 3 4 5 7 8 9 11 13 15 17 18
3 1 5 4 2 6 6 5 4 3 3 3 3 1 2 2 1 1 1 3 3 3 2 2 4 3 2 3 2 3 4 5 5 6 9 12 14 13 14 18 20 20 20 20 20 19 19 18 17 17 16 16 17 17 17 18 18 17 16 15 14 12 12 11 9 7 6 4 3 2 1 2 3 4 5 5 5 6 9 10 11 13 15 17 18 18
2 2 3 4 3 5 7 6 3 5 4 3 1 2 3 3 3 1 2 3 4 4 3 4 4 1 4 6 5 1 3 5 6 6 8 10 13 12 13 18 21 21 21 20 20 20 19 19 18 18 17 16 17 18 17 18 18 18 17 16 15 14 13 11 9 7 6 5 3 2 2 3 5 6 7 7 7 7 9 10 12 14 16 17 18 17
2 2 1 5 5 4 5 4 3 1 3 4 4 3 3 2 2 2 1 2 4 4 4 4 5 2 5 5 4 2 2 5 6 7 7 9 12 12 13 17 20 21 21 20 20 20 20 20 19 18 18 17 17 17 17 18 18 18 18 17 16 15 13 12 10 8 7 6 4 3 3 4 5 6 6 6 7 8 9 10 12 14 16 17 17 15
2 2 0 4 5 4 2 3 2 4 3 3 2 2 2 2 2 3 1 0 2 4 4 5 5 3 4 4 2 2 1 3 5 6 7 9 11 12 13 16 19 20 20 20 20 20 20 21 20 19 19 18 17 17 18 18 18 18 18 18 17 15 14 12 11 10 8 7 5 5 5 6 6 6 7 7 7 9 10 12 13 14 16 16 14 12
1 2 2 2 3 1 3 4 1 4 5 5 3 3 3 2 3 4 3 2 2 2 3 4 4 3 5 3 2 1 0 1 3 5 7 9 11 12 14 16 17 19 20 20 20 20 20 21 20 20 20 19 19 18 18 19 19 18 18 18 17 16 15 13 12 11 10 9 7 7 7 7 7 8 8 8 8 10 12 13 13 14 15 14 11 11
1 2 3 3 1 2 4 4 2 1 4 6 4 4 4 3 3 5 4 4 4 2 2 4 4 2 5 3 1 1 1 2 3 6 8 9 10 12 14 15 16 17 18 20 19 20 20 20 20 20 20 20 20 19 20 21 20 20 19 19 18 16 15 14 14 12 11 10 9 9 8 8 8 8 8 8 9 10 11 12 13 14 14 11 10 9
4 2 3 4 3 3 4 5 4 3 5 5 3 4 5 4 3 2 2 3 3 2 3 5 4 3 3 2 2 1 2 3 4 6 8 9 10 12 13 15 16 16 17 19 19 19 19 20 21 21 20 20 20 20 21 22 21 20 20 19 18 17 16 15 15 14 13 12 11 10 10 10 10 9 9 9 9 10 10 12 12 12 11 9 8 8
3 2 3 4 5 3 3 1 1 1 3 3 2 4 5 6 6 3 3 4 2 1 3 5 4 6 6 2 2 2 3 4 5 6 8 9 11 13 13 14 15 16 17 18 19 19 20 21 20 21 20 20 20 20 21 22 21 20 20 20 18 17 16 16 15 14 14 13 13 12 12 13 12 12 11 10 10 11 10 11 11 10 8 7 8 8
2 2 3 6 6 5 5 4 3 3 3 2 3 5 5 6 6 5 5 4 2 2 3 2 5 7 8 5 2 1 2 4 5 7 9 9 11 13 13 13 15 15 17 18 18 19 21 22 21 20 20 20 20 20 20 21 21 20 20 20 19 17 17 17 16 15 15 15 14 15 15 16 14 13 13 12 11 11 10 10 9 8 7 7 7 8
3 3 2 4 5 4 5 4 2 3 5 3 1 4 5 5 6 6 6 4 4 4 3 5 5 7 8 6 5 3 1 3 4 7 9 10 11 12 13 13 14 15 16 17 17 18 19 21 21 20 20 21 20 20 20 20 19 19 20 21 20 18 18 18 16 16 16 16 16 16 17 16 15 14 14 13 12 11 10 9 8 6 5 6 7 8
4 2 1 2 3 0 1 0 1 3 3 3 2 3 4 6 7 7 7 4 3 6 5 5 4 7 7 6 5 3 0 2 3 6 8 10 12 12 13 14 15 15 16 16 17 17 18 19 20 20 20 20 21 21 21 20 19 19 21 21 20 19 19 18 17 17 17 17 17 17 16 15 14 14 15 14 12 10 9 7 5 4 5 5 6 8
4 1 2 2 3 2 2 1 2 4 4 4 4 3 3 5 6 7 6 4 4 8 7 5 7 8 6 5 4 3 1 2 4 6 8 10 12 12 13 15 15 16 16 16 16 17 17 17 18 18 19 20 20 21 21 20 19 20 20 20 19 18 18 17 17 17 17 17 17 17 16 14 13 13 14 14 12 9 7 5 3 3 4 6 7 9
3 1 2 3 5 4 4 2 3 5 6 6 5 4 4 5 5 6 5 3 5 7 6 5 8 7 0 2 2 2 3 3 5 7 8 10 11 12 13 14 15 16 16 16 16 16 16 16 17 17 18 19 20 19 19 20 19 18 18 18 18 17 16 16 16 16 16 17 17 16 14 13 12 12 12 12 10 7 5 3 2 3 4 6 8 9
2 1 3 5 5 3 5 3 4 4 6 8 6 4 5 5 5 4 4 4 5 5 4 5 6 3 3 4 2 2 4 6 7 7 8 9 11 12 13 13 14 15 16 16 16 16 16 16 17 17 18 18 18 18 18 19 18 17 17 18 18 17 15 15 14 14 14 15 15 14 13 12 11 10 10 10 8 5 3 2 2 4 5 6 8 9
2 2 3 4 4 3 4 2 3 4 6 5 2 0 2 3 3 3 4 5 6 5 4 4 4 4 4 2 2 3 5 7 8 8 8 9 10 12 12 12 13 14 15 16 16 15 16 16 16 17 17 16 16 16 16 16 16 16 17 18 18 16 15 14 13 13 13 13 12 12 12 10 8 8 9 9 7 4 2 2 3 4 5 7 8 8
2 2 1 1 3 2 4 2 4 5 3 2 4 2 2 3 4 4 4 4 5 6 5 6 6 3 1 2 2 1 3 4 5 6 6 8 10 11 11 11 12 13 14 14 14 15 15 15 15 16 16 15 14 14 14 15 16 17 18 19 18 17 15 14 13 13 12 11 10 10 9 7 7 8 9 8 6 4 3 2 3 4 6 7 7 6
3 2 1 1 3 0 2 3 5 3 1 3 3 1 2 3 5 5 6 4 3 6 7 7 8 6 4 4 2 0 2 3 3 4 6 8 9 9 9 10 11 12 13 14 14 14 14 15 16 16 16 15 14 15 15 16 17 18 18 18 18 17 16 15 14 13 11 9 8 8 7 7 9 9 9 7 5 4 3 3 3 4 6 6 5 5
3 2 2 1 1 1 1 3 2 2 3 2 3 2 0 2 3 4 5 1 1 2 5 6 8 7 2 3 3 1 2 3 4 5 7 8 9 9 8 9 11 12 13 13 13 14 15 16 17 16 15 15 15 15 15 15 17 18 18 19 19 18 17 16 15 14 11 9 8 8 8 9 9 9 8 7 5 4 3 3 4 4 5 5 4 3
3 2 2 1 0 2 2 1 0 1 2 4 4 2 0 1 0 3 1 5 6 3 2 5 8 4 1 4 4 4 4 5 5 7 9 9 9 9 8 8 9 11 11 12 14 16 17 16 15 14 14 14 15 15 15 16 17 18 19 20 20 19 18 17 16 13 11 10 9 9 10 10 9 9 8 6 5 4 3 3 4 4 4 4 3 2
3 2 2 1 1 1 3 1 1 1 3 4 4 3 0 1 2 4 2 4 6 7 5 5 5 1 4 6 7 6 5 5 4 6 10 10 9 9 9 8 9 9 10 13 16 17 16 15 14 14 14 14 15 15 16 17 18 19 20 21 21 20 19 17 15 13 12 10 10 10 11 10 9 8 7 6 5 4 3 4 4 3 3 2 1 0
3 2 3 2 1 2 3 2 2 2 3 3 4 4 1 1 2 4 3 3 7 8 6 5 3 3 6 8 9 7 5 4 2 5 8 9 10 10 9 9 10 11 12 14 15 15 15 15 14 14 14 14 14 13 14 16 18 19 21 22 22 20 18 16 14 13 12 10 11 11 11 10 10 8 7 6 5 4 4 4 3 2 2 1 1 1
4 3 3 4 2 1 2 2 2 2 2 3 3 2 2 1 3 3 1 4 7 8 7 5 2 4 7 9 9 5 1 2 5 7 6 7 9 9 10 10 11 12 12 14 15 15 14 13 13 13 13 12 11 10 11 13 16 19 21 22 21 19 16 15 14 13 11 11 12 12 11 11 10 9 8 6 5 5 5 3 2 2 1 2 2 2
4 3 2 4 3 2 2 2 1 3 3 2 1 1 2 2 3 1 4 5 6 7 7 5 2 4 6 8 7 1 5 7 7 7 7 6 6 8 10 11 12 13 12 14 16 14 13 12 12 11 10 9 7 8 11 13 15 18 20 21 20 17 15 15 13 12 12 12 12 12 12 11 11 9 8 6 5 5 4 3 2 2 2 3 3 3
4 3 2 3 3 1 1 2 2 4 3 2 2 3 2 2 1 4 5 4 4 6 7 5 3 3 5 7 4 2 6 7 8 8 8 7 5 6 7 8 9 11 13 15 15 13 13 12 11 10 8 6 6 8 11 13 13 15 18 19 18 16 15 14 12 11 11 12 12 13 13 12 11 9 8 7 6 5 4 3 2 3 3 4 4 3
2 4 4 3 2 2 2 2 2 4 3 2 5 5 2 1 5 6 4 4 5 5 6 6 5 3 3 4 4 2 1 2 3 2 4 4 3 4 5 6 6 7 8 11 13 13 13 12 11 9 7 5 6 8 10 11 12 14 17 17 16 15 14 13 12 12 12 12 13 13 13 12 10 9 8 7 6 5 4 3 3 3 4 4 4 4
1 2 2 3 2 2 2 2 2 5 4 3 4 1 4 5 6 7 5 4 5 4 5 7 7 5 4 2 1 2 3 6 7 7 7 6 5 5 6 7 7 7 7 8 11 13 13 12 11 9 6 6 8 10 12 13 15 16 16 16 14 14 13 12 12 12 12 13 13 13 13 12 11 10 8 8 7 5 5 4 4 4 4 4 4 4
3 4 3 0 1 0 2 4 5 7 6 1 3 5 6 6 7 8 8 7 3 4 5 5 6 7 6 4 2 1 1 3 5 6 7 7 7 7 6 8 9 9 9 10 12 14 14 12 10 8 7 8 11 13 14 15 15 15 15 14 13 13 12 12 11 11 12 13 14 14 14 13 12 10 9 8 7 6 6 5 5 4 5 5 4 4
8 7 4 1 2 3 3 6 7 8 10 8 4 4 6 6 8 8 8 7 5 4 5 4 3 3 4 4 4 2 1 1 2 4 5 6 7 7 7 8 10 10 12 13 14 15 15 12 10 8 8 11 14 15 15 15 14 13 13 13 13 12 11 10 10 11 13 14 15 15 14 13 12 11 10 9 8 7 7 7 6 5 5 5 5 5
8 8 4 1 1 3 4 7 9 10 13 13 10 10 11 10 10 10 7 6 6 6 5 4 3 3 1 1 1 1 0 1 2 2 3 4 5 6 6 8 9 11 14 15 16 16 15 13 11 10 11 14 16 17 16 15 15 13 12 11 11 10 9 9 10 12 13 15 16 16 15 14 13 11 10 10 9 9 9 8 7 6 5 5 5 6
5 10 5 1 2 2 7 11 11 9 15 19 16 13 14 14 13 13 10 6 5 4 5 5 5 5 5 4 3 2 2 2 3 3 3 3 4 5 6 7 9 12 16 17 17 16 15 13 11 10 13 16 17 17 17 17 16 14 12 11 10 9 9 10 11 13 14 16 16 16 16 15 13 11 11 11 10 10 10 9 8 7 6 6 6 7
7 7 5 3 2 5 8 12 13 2 10 19 21 17 16 16 15 14 12 9 8 6 4 4 5 5 6 7 6 6 6 4 4 5 5 4 3 3 4 6 8 13 17 18 17 17 16 13 11 12 14 16 17 18 18 18 16 15 14 12 11 10 10 11 12 14 16 17 17 17 17 15 13 12 12 12 11 12 12 11 10 9 8 8 8 8
6 3 5 4 1 4 5 10 11 3 2 12 19 18 17 17 15 15 15 14 12 9 7 5 4 4 4 5 5 7 7 6 7 8 7 7 6 4 3 4 7 12 17 19 18 18 17 14 12 13 15 17 17 18 19 18 17 16 15 14 13 12 12 12 13 16 17 18 18 18 18 16 14 14 14 13 13 14 14 12 11 10 9 9 8 8
5 3 6 5 1 3 6 9 9 6 3 7 13 16 17 18 17 17 17 17 15 13 10 9 7 6 5 3 3 5 5 6 7 7 8 9 10 9 6 4 5 10 16 19 19 19 18 17 15 15 17 18 18 18 19 19 18 18 17 17 16 15 14 13 14 16 17 18 19 19 18 17 16 15 15 15 16 16 15 13 13 12 10 9 9 9
Wind_Direction
225 245 246 3 29 24 4 16 13 18 60 79 87 92 97 112 100 97 113 108 286 284 87 77 112 133 144 145 146 148 160 169 165 169 168 164 166 160 158 159 156 147 133 132 134 131 132 127 118 109 104 95 88 94 104 116 123 127 134 142 148 142 119 102 84 70 60 49 46 49 54 52 49 50 48 49 53 56 60 60 66 68 65 77 88 89
224 267 3 34 27 18 19 103 139 117 102 96 91 103 107 94 96 103 112 116 253 283 114 134 145 136 143 145 153 162 169 177 177 177 174 171 171 166 165 164 154 141 137 141 140 139 137 131 125 113 106 93 85 92 102 113 121 124 130 132 130 125 117 114 99 75 66 64 63 64 63 57 53 56 59 60 58 58 63 65 72 75 70 76 86 86
214 265 35 49 53 76 125 155 170 149 120 98 92 110 97 92 112 122 134 145 222 266 128 160 180 138 142 149 161 177 184 185 184 184 180 176 176 174 171 167 156 147 147 150 148 147 144 138 133 120 110 96 90 95 102 112 118 120 122 121 120 116 110 109 104 95 83 75 72 72 73 69 65 64 66 69 64 63 67 65 72 81 78 77 79 75
273 53 56 81 118 132 145 162 177 157 126 71 68 65 84 118 170 118 140 170 195 246 138 169 183 144 154 167 175 190 195 191 190 192 191 189 186 180 176 171 163 158 158 159 157 155 153 149 141 129 118 105 97 99 106 114 116 118 119 117 115 109 105 104 104 101 87 72 69 72 73 73 75 72 67 69 68 69 72 71 80 87 82 80 78 71
324 64 83 124 156 177 158 165 189 177 103 66 52 35 74 127 267 44 126 161 168 166 171 186 188 162 175 185 182 188 196 196 196 199 200 200 197 190 183 178 172 168 166 164 163 163 161 157 149 138 127 113 103 102 109 114 113 113 112 110 108 103 99 98 97 95 87 78 75 76 74 70 75 79 77 81 78 74 80 84 88 89 81 77 73 65
356 68 105 220 196 190 176 174 207 258 91 98 71 49 82 118 112 103 141 176 181 151 159 206 220 149 167 188 184 176 189 197 196 201 204 201 198 197 194 187 180 175 172 170 168 167 164 158 153 146 136 124 113 109 113 115 113 110 108 104 101 99 97 97 97 95 92 91 89 86 83 80 81 83 85 91 87 83 92 95 91 87 79 70 65 57
60 72 237 250 197 178 200 183 201 265 282 107 100 106 117 122 126 138 171 219 278 94 129 224 278 111 157 187 182 173 187 196 194 202 205 202 199 200 198 193 187 181 177 175 172 168 166 162 159 154 147 138 129 125 123 120 117 114 110 107 102 100 99 100 100 98 96 97 97 94 90 87 86 88 90 94 99 99 98 95 88 81 72 62 55 47
109 142 196 218 191 179 201 154 172 249 307 86 129 159 141 137 141 157 212 286 34 88 147 206 272 292 157 168 174 179 190 195 196 203 204 203 202 200 198 195 190 186 181 176 174 171 169 167 166 162 156 150 144 140 136 130 126 122 118 114 110 107 104 102 101 98 100 102 100 98 94 90 89 91 93 94 100 102 97 92 87 76 64 54 47 38
124 279 181 184 189 168 69 61 144 203 1 100 150 169 146 148 148 168 262 32 54 214 155 152 235 261 141 135 166 184 196 203 202 204 203 202 201 198 197 195 190 187 183 179 177 175 173 172 170 166 160 157 154 151 147 142 136 133 131 125 120 115 110 106 102 101 106 107 102 98 97 96 94 91 92 95 97 94 90 88 83 73 58 44 34 27
85 340 311 206 233 105 84 89 143 185 69 125 160 157 142 159 157 195 271 33 182 236 70 91 236 273 127 132 165 185 203 214 207 205 203 200 199 197 196 194 190 187 183 182 178 176 176 174 171 168 164 163 161 158 158 153 147 145 143 138 130 124 120 114 109 106 106 105 102 100 99 98 96 92 92 94 91 87 89 85 74 62 51 35 20 22
89 92 112 335 39 96 111 107 116 106 114 139 162 156 153 170 179 226 256 233 227 153 82 76 261 274 192 123 153 179 201 214 207 201 199 198 198 196 194 192 191 187 184 182 179 178 178 175 173 172 169 169 167 165 165 161 157 157 156 152 145 137 135 127 119 114 105 100 101 102 99 96 95 91 89 91 87 84 88 81 67 49 37 20 13 20
130 142 128 99 107 125 125 113 106 121 138 157 179 175 184 182 188 219 201 218 259 79 81 81 240 253 259 97 130 163 176 195 205 196 190 195 197 193 192 192 190 188 185 183 181 179 178 177 176 177 175 174 173 172 171 169 168 168 167 164 159 153 149 140 130 126 114 103 101 102 101 99 98 92 87 89 87 85 86 73 53 31 19 2 4 10
148 129 119 124 147 163 144 119 121 141 164 197 217 209 233 225 158 219 163 171 32 64 57 349 208 238 255 81 125 169 182 191 204 204 192 194 196 191 190 190 189 187 185 184 182 179 180 180 180 181 180 179 180 179 178 177 176 176 176 173 169 167 164 154 141 133 125 113 102 100 102 103 101 94 90 89 87 88 83 61 29 9 357 348 356 356
141 123 150 158 163 190 202 162 143 162 195 218 231 242 283 351 16 9 43 52 55 78 70 103 200 239 217 115 116 158 182 188 201 217 211 200 196 191 188 187 187 187 186 185 183 180 181 183 184 184 183 184 185 185 183 183 182 181 182 181 178 179 176 163 152 148 143 136 115 101 105 108 99 93 96 92 87 91 71 19 346 344 339 341 347 341
333 110 163 173 141 180 213 299 3 118 179 200 272 289 301 341 350 1 22 22 24 69 102 140 218 314 3 170 136 117 149 197 218 224 216 205 197 190 187 186 185 185 186 186 183 182 182 183 185 186 186 187 187 187 187 187 186 186 186 187 187 186 182 170 163 166 166 160 136 110 104 107 103 102 119 120 122 153 223 311 318 328 330 334 334 329
299 61 132 132 88 179 200 272 298 275 148 150 254 262 299 351 348 354 5 1 346 324 107 157 244 354 68 157 162 175 208 224 232 223 206 196 188 184 186 186 184 184 185 185 183 181 181 182 184 187 188 187 187 189 189 189 190 190 190 192 192 190 188 184 178 174 173 175 151 118 107 104 112 122 147 176 225 249 276 291 307 320 323 324 323 323
291 74 123 148 170 188 206 172 209 290 37 151 215 216 50 352 316 312 260 228 280 283 45 10 302 70 124 147 161 209 220 209 203 201 192 184 175 175 182 184 183 183 184 184 183 180 180 182 186 188 188 186 187 189 190 191 192 193 193 193 194 194 195 194 188 180 177 179 164 127 95 45 53 28 291 260 268 287 297 293 301 312 314 314 317 321
289 87 129 175 180 160 192 186 167 301 306 191 176 87 114 265 286 291 283 242 278 324 46 19 339 353 65 95 152 181 194 187 182 177 173 171 169 171 178 182 183 183 183 182 182 180 180 182 186 187 185 187 188 189 191 192 193 194 194 194 196 197 196 195 193 192 189 185 186 173 84 352 343 329 299 285 290 301 303 301 304 307 307 309 313 318
262 253 134 180 182 137 174 206 168 171 250 294 10 92 214 274 279 191 299 325 339 350 17 8 337 342 24 28 66 154 176 180 175 170 169 169 171 174 177 181 183 182 181 182 182 180 180 183 185 185 183 186 188 189 190 191 192 195 196 196 198 199 197 196 196 196 197 198 210 234 285 319 305 293 288 292 298 299 300 302 303 303 303 307 311 316
235 289 137 158 157 146 177 218 208 159 181 248 250 192 232 313 343 352 332 323 326 334 343 346 341 38 52 17 2 34 161 179 177 177 181 176 174 177 177 178 181 181 181 182 182 181 181 183 184 184 183 184 186 188 189 190 193 196 197 196 196 195 196 196 195 193 199 208 220 251 290 303 297 290 289 290 288 291 296 300 300 300 302 305 309 314
199 278 135 137 151 185 192 209 256 196 164 202 212 204 204 215 290 295 283 305 320 328 342 342 332 19 57 24 354 14 133 182 184 182 187 181 175 176 177 177 178 179 180 182 181 181 181 182 183 183 183 183 184 187 189 191 195 196 196 196 193 193 194 195 194 192 196 208 223 249 276 286 290 291 288 281 278 284 292 296 298 302 305 305 307 313
207 256 208 144 173 215 179 121 319 311 291 253 239 245 244 227 266 282 255 224 308 322 340 334 319 351 59 57 8 9 139 191 190 182 184 181 174 174 175 174 175 177 179 181 182 181 181 183 184 184 183 184 185 188 191 193 195 195 198 198 195 195 196 196 195 196 196 204 222 240 258 274 285 285 278 272 275 279 282 287 295 302 306 305 308 319
334 275 239 199 196 192 79 88 354 311 288 271 263 269 279 261 270 293 320 343 306 309 326 304 303 9 77 81 31 36 174 214 185 177 182 178 172 172 172 170 172 176 179 182 182 182 183 184 185 186 185 186 188 191 194 194 195 197 200 199 197 196 197 197 198 201 203 210 223 237 250 266 278 278 272 271 277 282 282 285 293 300 302 305 315 325
220 262 245 254 214 129 111 132 162 257 252 250 240 236 254 256 270 295 323 331 304 292 314 299 306 33 99 112 65 99 197 207 173 176 180 173 168 171 170 169 171 174 178 182 183 183 184 185 187 189 189 190 191 193 197 198 198 200 201 200 199 199 198 201 204 208 212 217 224 235 246 258 269 270 267 272 279 282 285 287 292 299 302 309 322 326
193 237 236 262 247 194 185 178 175 185 216 244 247 217 236 242 239 262 289 279 276 316 336 310 317 18 76 123 162 173 197 183 158 168 174 169 169 171 169 170 172 172 175 180 182 184 185 187 190 192 192 194 195 197 201 203 203 205 206 204 203 204 204 208 212 215 218 223 229 238 247 257 265 265 262 273 281 279 282 289 295 301 307 317 325 326
197 247 229 267 279 261 263 252 177 215 206 222 227 206 223 224 212 220 257 254 252 354 302 290 326 357 2 13 165 172 202 186 150 155 167 167 170 172 170 170 172 174 177 179 182 187 190 192 194 195 196 197 199 200 204 206 207 209 213 213 212 212 215 218 221 225 230 235 241 248 255 260 266 267 264 270 278 278 284 295 300 304 313 322 325 325
213 261 237 272 287 297 322 358 23 314 276 229 186 187 206 216 214 234 264 281 325 309 278 352 19 346 343 357 17 82 202 199 162 161 166 161 166 171 171 172 173 176 180 181 184 189 195 198 197 197 200 201 202 204 206 208 210 212 217 222 221 221 226 230 232 237 243 248 252 256 261 264 268 270 265 263 270 277 286 296 301 306 318 325 324 322
247 250 218 261 277 308 337 1 33 278 279 290 208 175 179 192 208 232 259 306 341 295 296 45 29 332 344 357 351 14 182 201 175 175 170 158 162 169 170 173 174 177 179 180 184 188 194 199 200 200 203 205 206 208 210 211 211 212 219 227 227 226 231 237 241 246 251 255 257 259 263 266 268 268 262 256 260 270 283 291 299 311 323 322 318 321
270 252 148 239 251 314 2 349 207 248 262 276 256 198 180 191 204 231 259 283 288 277 306 17 352 318 337 341 337 19 104 192 152 162 162 154 161 166 168 175 178 179 180 180 184 188 192 197 200 201 205 207 209 212 214 214 213 214 222 229 231 231 234 238 243 248 253 257 261 262 265 267 265 261 253 247 250 263 278 288 301 318 319 314 315 331
289 222 136 221 222 161 150 181 211 233 239 239 238 226 213 216 220 242 264 272 262 272 293 323 304 296 313 332 351 53 99 149 137 151 161 162 166 169 173 179 182 183 184 183 185 188 191 194 197 199 202 205 209 213 215 216 216 217 222 228 231 234 236 238 241 247 253 259 262 262 263 264 259 251 243 240 245 257 272 286 306 314 306 309 324 342
273 224 138 224 229 168 152 191 217 237 259 261 250 234 231 240 241 245 254 243 247 269 279 282 283 282 294 64 41 101 149 173 166 166 172 174 174 176 180 185 187 188 188 188 188 188 189 192 194 197 201 204 207 211 214 217 218 218 220 225 230 233 236 238 240 245 251 257 260 260 259 257 251 241 236 236 239 248 265 279 297 300 301 317 335 346
225 211 158 218 238 167 150 199 222 240 261 257 252 240 226 236 245 240 234 222 240 277 276 253 277 308 95 111 140 160 180 196 191 179 179 182 181 183 187 190 190 191 191 189 189 189 190 192 195 198 201 203 207 210 213 217 217 217 218 223 229 232 233 236 240 246 253 259 261 256 251 248 242 233 229 230 230 235 251 263 280 293 307 329 341 347
220 211 173 216 248 158 144 195 233 239 249 239 220 314 226 242 258 243 230 224 233 261 277 276 316 16 71 128 184 174 192 207 203 194 191 189 187 188 192 194 193 192 192 191 190 191 193 194 197 201 202 205 207 209 212 214 214 215 219 223 226 229 230 235 241 249 258 263 256 245 239 235 226 220 219 219 219 220 225 245 273 295 319 337 344 349
217 228 153 233 273 147 129 191 240 239 249 106 86 47 343 302 280 257 256 248 222 227 265 300 315 326 178 214 242 197 194 197 197 197 193 189 191 193 196 199 198 193 191 191 192 194 196 195 197 203 206 207 208 208 210 213 214 217 220 222 224 227 231 237 243 252 261 261 246 234 226 215 208 210 211 208 206 202 205 244 279 306 329 340 346 352
182 205 129 196 286 314 141 223 238 239 42 75 102 63 332 299 277 270 276 278 234 226 249 280 296 296 261 231 236 161 149 153 170 189 192 191 192 197 202 201 198 194 191 192 194 195 194 195 200 206 208 207 208 210 212 215 218 220 221 222 223 226 231 237 244 254 257 245 229 219 207 200 200 202 203 199 193 193 212 255 290 317 332 341 349 355
182 178 157 182 297 315 219 226 263 357 36 89 121 112 196 230 233 258 262 213 104 238 250 283 310 321 294 208 186 135 138 149 168 178 181 186 187 193 204 200 195 195 193 193 195 194 196 200 205 209 210 210 214 216 218 220 220 221 222 223 225 228 230 235 243 247 238 218 209 204 196 195 196 195 196 193 186 197 227 267 300 320 332 343 352 354
220 193 183 193 265 308 296 286 342 304 143 127 115 104 300 248 258 296 308 88 71 28 331 313 320 337 122 164 150 138 152 171 186 173 168 177 182 185 194 193 190 192 190 191 195 198 203 207 210 212 214 218 222 224 228 229 224 222 223 224 227 228 229 235 241 235 217 203 199 195 191 191 193 193 191 186 187 211 245 278 301 316 334 346 347 348
245 254 263 238 172 288 300 340 75 114 107 97 89 91 56 311 335 306 280 99 60 26 7 330 325 43 132 144 142 146 164 193 204 160 160 174 178 179 186 185 182 184 186 194 201 205 209 212 215 220 222 227 232 234 237 237 231 225 222 222 226 227 228 234 234 219 203 196 191 188 187 189 191 191 187 186 197 227 260 280 292 312 336 338 319 310
217 245 256 253 209 241 285 340 68 63 58 77 91 100 140 235 273 275 248 101 46 20 4 341 338 140 144 138 143 163 190 203 141 110 145 177 182 183 189 185 186 194 198 203 208 212 217 219 224 231 233 234 239 240 239 240 236 230 222 218 220 222 224 227 220 204 194 189 183 185 188 191 191 188 186 194 213 242 264 272 280 309 323 291 201 154
192 205 224 243 231 210 279 319 83 81 55 87 107 102 112 181 235 252 277 52 32 17 7 356 20 145 149 145 157 184 229 51 72 91 132 178 191 198 202 196 197 203 206 213 219 221 226 230 232 235 233 231 235 242 245 244 237 230 222 213 210 213 216 213 204 193 187 183 183 187 192 195 193 190 192 207 229 249 257 258 265 289 274 208 178 154
186 191 225 254 245 173 234 267 135 104 75 81 104 96 116 184 235 279 47 38 24 24 21 10 42 138 156 170 181 162 63 84 104 118 139 162 183 202 212 217 219 217 214 223 230 231 231 231 226 223 220 219 230 248 255 249 236 226 216 205 200 202 203 197 190 184 182 183 187 193 196 196 194 193 202 220 238 248 247 239 252 260 222 190 173 155
187 180 190 244 246 186 223 252 154 104 65 43 91 110 162 225 48 69 73 56 31 34 39 39 59 125 169 198 218 37 77 119 138 138 145 152 161 180 194 207 223 229 230 232 233 228 223 217 211 206 204 212 235 245 243 236 224 213 203 193 188 188 187 184 180 180 183 188 194 199 200 199 198 201 212 228 239 241 232 227 242 236 205 185 171 158
185 199 190 183 196 193 201 214 162 94 76 137 145 137 179 318 48 64 90 96 67 45 48 59 65 100 161 204 241 291 350 225 220 199 193 196 195 204 209 202 198 210 231 235 227 217 208 200 195 193 192 206 224 221 213 203 191 184 182 179 177 176 177 176 177 183 191 198 202 204 203 201 203 209 220 232 236 231 221 226 234 221 199 184 172 166
152 253 214 152 172 212 184 148 79 48 58 175 196 53 22 18 18 9 2 32 65 62 55 66 69 72 90 126 237 263 277 279 279 280 278 276 274 266 254 239 218 199 200 214 212 201 191 186 186 185 183 195 201 189 176 169 165 165 168 169 169 171 174 177 184 193 202 206 207 206 204 202 207 215 225 233 230 220 217 227 227 210 196 187 176 173
43 3 328 314 164 237 43 45 35 31 39 78 258 318 348 346 330 322 324 330 355 35 33 49 68 66 70 85 79 49 333 311 307 303 296 287 282 279 269 256 244 222 200 196 196 190 184 182 183 179 178 186 183 170 161 160 161 161 164 166 168 172 177 184 194 203 209 211 210 208 206 206 211 219 228 231 224 217 220 226 222 208 198 188 183 185
46 15 323 290 113 121 77 46 48 51 49 56 62 23 7 352 335 320 300 293 302 334 353 2 33 52 67 91 96 91 93 7 348 343 330 306 288 281 273 260 249 228 205 193 190 187 184 180 178 177 180 182 176 168 165 164 163 164 167 168 169 175 183 192 203 212 215 215 213 210 210 212 216 223 229 227 219 219 225 226 221 212 200 191 192 196
49 9 327 239 140 170 128 56 52 70 58 45 47 39 24 18 12 356 327 297 284 271 279 307 304 280 286 100 117 125 148 272 279 299 328 323 301 280 271 265 246 222 204 195 193 191 188 184 180 181 184 182 177 173 173 172 170 170 172 174 177 182 190 202 213 220 221 219 215 214 214 216 220 226 229 225 222 224 228 227 223 216 204 198 202 204
9 350 347 2 325 154 109 46 29 85 77 48 38 32 19 14 17 11 1 358 348 302 276 290 295 284 289 296 295 295 296 298 292 271 265 298 308 285 268 262 242 218 205 199 196 195 195 192 186 184 186 185 181 179 181 180 178 176 176 181 187 193 201 211 218 223 223 220 218 216 217 219 224 228 228 228 228 229 228 227 225 219 210 208 211 210
309 322 341 335 308 140 103 26 359 73 88 42 28 27 22 19 16 12 16 28 30 24 1 327 312 295 289 289 292 296 297 311 325 303 271 267 292 300 286 269 242 219 209 204 201 200 199 195 187 185 188 188 187 187 186 186 185 184 185 191 197 204 212 217 218 220 221 220 218 218 220 222 225 228 230 230 229 228 228 227 226 223 218 219 220 216
318 323 339 312 222 121 74 11 353 324 77 29 18 16 24 30 24 20 29 36 33 33 39 26 5 340 311 291 282 282 286 298 310 309 300 286 280 282 283 266 241 223 213 208 205 204 202 196 189 190 192 192 193 194 193 192 192 193 197 203 208 215 221 220 217 218 219 219 220 222 223 225 227 228 231 232 230 231 232 232 232 230 228 228 227 223
3 2 343 328 339 30 7 359 353 336 348 27 19 15 27 39 34 27 34 38 32 31 38 37 29 23 20 357 303 280 279 287 289 291 297 298 296 293 283 265 246 229 220 216 212 209 206 200 194 194 197 198 198 199 200 201 202 203 207 212 216 222 227 225 221 221 220 221 225 226 226 228 230 233 234 233 234 235 235 234 234 235 234 231 229 227
Height
1517 1517 1515 1513 1513 1514 1515 1515 1516 1516 1515 1518 1520 1523 1525 1527 1532 1533 1532 1533 1533 1533 1534 1534 1533 1535 1538 1539 1541 1544 1545 1545 1546 1548 1549 1550 1551 1551 1552 1553 1554 1556 1557 1558 1559 1560 1561 1561 1561 1561 1561 1561 1561 1560 1560 1560 1560 1560 1560 1561 1561 1561 1561 1561 1561 1562 1562 1562 1562 1562 1562 1561 1561 1560 1560 1559 1558 1558 1557 1556 1556 1555 1555 1554 1553 1553
1517 1516 1512 1510 1512 1513 1513 1515 1516 1516 1517 1517 1519 1524 1525 1526 1531 1534 1533 1534 1533 1533 1536 1536 1534 1535 1536 1538 1541 1542 1543 1544 1545 1546 1547 1549 1550 1551 1552 1553 1554 1556 1557 1558 1559 1560 1561 1561 1561 1561 1562 1561 1561 1561 1560 1560 1561 1561 1561 1561 1561 1561 1561 1562 1562 1562 1562 1562 1562 1562 1562 1562 1561 1561 1561 1560 1560 1560 1559 1558 1557 1557 1557 1557 1556 1555
1515 1513 1509 1510 1511 1512 1513 1515 1516 1517 1516 1517 1519 1522 1524 1527 1531 1534 1534 1534 1533 1533 1535 1536 1534 1535 1536 1537 1540 1541 1542 1543 1544 1545 1546 1547 1549 1550 1551 1552 1554 1555 1557 1558 1559 1560 1561 1561 1562 1562 1562 1562 1561 1561 1561 1561 1561 1561 1562 1561 1562 1562 1562 1562 1562 1563 1563 1563 1562 1563 1563 1563 1562 1562 1561 1561 1561 1561 1560 1559 1559 1558 1558 1559 1559 1558
1512 1510 1509 1510 1511 1513 1515 1515 1516 1516 1515 1516 1517 1520 1524 1528 1531 1532 1533 1534 1532 1532 1534 1535 1534 1535 1537 1538 1539 1541 1541 1542 1543 1545 1545 1547 1548 1549 1551 1552 1553 1554 1556 1557 1559 1560 1561 1561 1562 1562 1562 1562 1562 1562 1561 1561 1561 1562 1562 1562 1562 1562 1563 1563 1563 1563 1563 1563 1563 1563 1563 1563 1563 1563 1562 1562 1562 1562 1562 1561 1561 1560 1560 1560 1560 1559
1510 1509 1509 1510 1512 1513 1515 1516 1515 1513 1515 1517 1517 1519 1523 1527 1529 1528 1530 1532 1531 1531 1531 1532 1534 1534 1535 1537 1538 1539 1540 1541 1542 1544 1545 1546 1547 1549 1550 1551 1552 1553 1555 1556 1558 1559 1560 1561 1562 1562 1562 1562 1562 1562 1562 1562 1562 1562 1562 1563 1563 1563 1563 1563 1563 1563 1563 1564 1564 1564 1564 1564 1564 1564 1564 1564 1564 1563 1563 1563 1562 1562 1561 1561 1561 1560
1509 1510 1510 1511 1512 1513 1515 1516 1513 1510 1514 1519 1520 1520 1521 1524 1527 1527 1529 1529 1528 1531 1529 1529 1535 1533 1529 1532 1533 1534 1537 1539 1540 1541 1542 1544 1545 1547 1548 1549 1551 1552 1554 1555 1556 1558 1559 1560 1561 1562 1562 1563 1563 1563 1563 1563 1563 1563 1563 1563 1563 1564 1564 1564 1564 1564 1565 1565 1565 1565 1565 1565 1565 1565 1565 1564 1564 1564 1564 1564 1563 1563 1562 1562 1561 1561
1509 1511 1511 1512 1512 1514 1515 1514 1513 1510 1511 1519 1522 1520 1521 1523 1526 1528 1528 1526 1526 1530 1529 1528 1533 1531 1527 1527 1527 1530 1534 1535 1537 1538 1539 1541 1543 1544 1546 1547 1549 1551 1553 1554 1556 1557 1558 1559 1560 1562 1562 1563 1564 1564 1564 1564 1564 1564 1564 1564 1565 1565 1565 1565 1565 1565 1566 1566 1566 1566 1566 1566 1566 1565 1565 1564 1564 1565 1565 1565 1564 1564 1563 1563 1562 1562
1510 1511 1512 1512 1513 1514 1514 1513 1513 1510 1511 1518 1521 1520 1521 1522 1526 1528 1525 1524 1523 1526 1528 1526 1528 1530 1527 1523 1521 1525 1531 1532 1533 1535 1536 1538 1540 1541 1543 1545 1547 1549 1551 1553 1554 1555 1557 1559 1560 1561 1563 1563 1564 1564 1565 1565 1565 1565 1565 1566 1566 1566 1566 1566 1566 1566 1567 1567 1567 1567 1567 1567 1566 1566 1566 1565 1565 1565 1565 1565 1565 1565 1564 1563 1563 1562
1508 1511 1512 1512 1513 1513 1513 1512 1512 1512 1515 1520 1520 1519 1520 1521 1524 1524 1522 1522 1522 1526 1529 1525 1525 1529 1526 1521 1520 1522 1527 1529 1529 1530 1532 1534 1536 1539 1541 1543 1545 1547 1549 1551 1553 1554 1556 1558 1559 1561 1562 1563 1564 1564 1565 1565 1566 1566 1566 1566 1567 1567 1567 1567 1567 1568 1568 1568 1568 1568 1567 1567 1567 1567 1567 1567 1567 1566 1566 1566 1566 1565 1565 1564 1563 1563
1509 1511 1510 1511 1511 1512 1513 1513 1512 1514 1516 1520 1520 1519 1521 1521 1522 1523 1522 1522 1524 1529 1531 1526 1525 1529 1524 1518 1520 1524 1525 1524 1523 1524 1526 1529 1533 1536 1538 1541 1543 1545 1548 1549 1551 1553 1555 1556 1558 1560 1561 1563 1563 1564 1565 1565 1566 1567 1566 1567 1568 1568 1568 1568 1568 1569 1568 1568 1568 1568 1568 1568 1568 1568 1568 1568 1568 1568 1567 1567 1566 1566 1565 1565 1564 1563
1510 1511 1511 1511 1512 1512 1514 1515 1515 1515 1516 1519 1520 1520 1522 1521 1521 1523 1520 1519 1527 1532 1531 1527 1525 1528 1527 1517 1514 1519 1519 1516 1516 1518 1521 1524 1528 1532 1535 1538 1540 1543 1545 1548 1550 1552 1553 1555 1557 1559 1561 1562 1563 1563 1564 1565 1566 1567 1567 1567 1568 1568 1568 1568 1568 1569 1568 1568 1568 1568 1569 1568 1569 1569 1569 1569 1568 1568 1568 1568 1567 1566 1566 1565 1564 1563
1510 1511 1512 1512 1514 1513 1514 1516 1517 1517 1517 1519 1517 1518 1523 1523 1521 1524 1522 1522 1529 1532 1528 1524 1522 1527 1530 1518 1508 1510 1511 1510 1512 1513 1515 1520 1523 1527 1532 1535 1538 1540 1543 1545 1548 1550 1552 1554 1556 1558 1560 1560 1562 1563 1563 1565 1565 1566 1567 1567 1568 1568 1568 1568 1568 1569 1569 1568 1569 1569 1569 1569 1569 1569 1569 1569 1569 1569 1569 1568 1568 1567 1566 1565 1564 1563
1508 1511 1512 1514 1515 1512 1513 1516 1520 1520 1518 1518 1516 1518 1524 1524 1526 1530 1526 1523 1526 1528 1525 1521 1524 1528 1522 1509 1504 1507 1507 1508 1510 1510 1512 1515 1519 1524 1528 1532 1535 1538 1541 1544 1546 1549 1550 1552 1554 1556 1558 1559 1561 1562 1563 1564 1565 1566 1566 1567 1567 1568 1568 1568 1568 1568 1569 1569 1569 1569 1569 1569 1569 1569 1569 1569 1569 1569 1569 1568 1568 1567 1566 1565 1564 1563
1511 1514 1513 1514 1514 1511 1510 1513 1520 1522 1518 1518 1516 1518 1523 1527 1538 1541 1530 1525 1527 1528 1523 1521 1526 1525 1514 1506 1504 1504 1506 1507 1509 1510 1512 1513 1516 1521 1525 1529 1533 1536 1539 1542 1544 1547 1549 1550 1553 1554 1556 1558 1559 1561 1562 1563 1564 1565 1566 1566 1567 1568 1568 1568 1568 1568 1568 1569 1569 1569 1569 1569 1570 1570 1569 1569 1569 1569 1569 1568 1567 1567 1566 1565 1564 1563
1517 1519 1513 1512 1512 1511 1510 1509 1513 1513 1513 1516 1512 1513 1519 1522 1533 1539 1533 1531 1530 1525 1522 1526 1527 1519 1516 1516 1506 1503 1506 1507 1509 1510 1511 1514 1515 1519 1523 1527 1531 1534 1537 1540 1542 1545 1547 1549 1551 1553 1555 1557 1558 1560 1561 1562 1563 1564 1565 1565 1566 1567 1567 1568 1568 1568 1568 1568 1568 1569 1569 1569 1569 1570 1569 1569 1569 1568 1568 1568 1567 1566 1565 1564 1563 1562
1513 1515 1509 1510 1510 1510 1511 1510 1509 1509 1514 1517 1511 1514 1519 1514 1517 1527 1529 1530 1529 1525 1523 1524 1519 1506 1507 1510 1502 1503 1507 1505 1508 1510 1510 1514 1515 1517 1522 1524 1528 1532 1534 1538 1540 1543 1546 1548 1549 1551 1553 1555 1557 1558 1559 1561 1562 1563 1564 1565 1565 1566 1567 1567 1567 1567 1568 1568 1568 1568 1568 1568 1568 1569 1569 1569 1569 1568 1567 1567 1566 1566 1565 1564 1563 1562
1511 1512 1508 1510 1512 1509 1511 1510 1509 1511 1516 1517 1515 1516 1515 1509 1510 1521 1530 1529 1529 1533 1525 1516 1511 1501 1501 1507 1503 1503 1506 1503 1507 1509 1508 1512 1514 1517 1520 1522 1526 1530 1532 1536 1538 1541 1544 1546 1548 1550 1552 1554 1555 1557 1558 1559 1561 1562 1563 1564 1565 1566 1566 1567 1567 1567 1567 1567 1567 1567 1567 1567 1567 1567 1568 1568 1568 1567 1567 1567 1566 1565 1564 1563 1562 1561
1508 1512 1509 1509 1511 1510 1510 1511 1510 1510 1512 1514 1515 1513 1509 1512 1514 1517 1528 1532 1530 1534 1525 1514 1514 1507 1507 1513 1507 1502 1505 1505 1505 1506 1508 1511 1514 1517 1519 1522 1525 1528 1531 1534 1537 1540 1543 1545 1547 1549 1551 1553 1554 1556 1557 1558 1560 1561 1562 1563 1564 1565 1566 1566 1566 1566 1567 1567 1567 1567 1567 1567 1566 1567 1567 1567 1567 1566 1566 1566 1565 1565 1564 1563 1562 1561
1503 1511 1512 1507 1509 1512 1511 1511 1512 1511 1510 1510 1511 1508 1510 1521 1522 1517 1526 1532 1532 1535 1529 1516 1513 1509 1507 1508 1504 1502 1505 1505 1504 1505 1507 1510 1512 1516 1518 1521 1524 1526 1530 1533 1536 1539 1541 1543 1546 1547 1550 1551 1553 1555 1556 1558 1559 1560 1561 1562 1564 1564 1565 1565 1565 1565 1566 1566 1566 1566 1566 1566 1566 1566 1566 1566 1566 1566 1565 1565 1565 1564 1563 1562 1561 1560
1501 1511 1515 1509 1507 1511 1510 1510 1512 1511 1511 1510 1510 1509 1509 1515 1516 1514 1518 1521 1525 1532 1530 1522 1517 1510 1504 1501 1500 1502 1502 1502 1505 1506 1506 1508 1511 1514 1516 1519 1522 1525 1528 1531 1534 1537 1540 1542 1544 1546 1549 1550 1552 1554 1555 1557 1558 1559 1560 1561 1562 1563 1563 1564 1564 1564 1565 1565 1566 1566 1565 1566 1565 1565 1565 1565 1565 1565 1565 1564 1564 1564 1562 1561 1560 1559
1501 1508 1514 1511 1509 1511 1510 1507 1506 1505 1507 1509 1510 1511 1511 1511 1512 1513 1513 1511 1515 1524 1527 1530 1527 1511 1500 1500 1501 1501 1501 1501 1503 1504 1505 1507 1510 1513 1516 1518 1521 1524 1527 1530 1533 1536 1539 1541 1543 1545 1548 1550 1552 1553 1554 1556 1557 1558 1559 1560 1561 1562 1562 1563 1563 1563 1564 1564 1565 1565 1565 1565 1565 1565 1565 1565 1565 1565 1564 1564 1563 1563 1562 1560 1560 1559
1501 1504 1508 1511 1512 1510 1505 1501 1501 1502 1502 1504 1505 1506 1506 1508 1511 1519 1522 1513 1509 1517 1520 1527 1530 1513 1497 1499 1501 1499 1501 1501 1501 1503 1505 1506 1509 1513 1515 1518 1520 1523 1526 1529 1532 1535 1538 1540 1542 1544 1546 1549 1551 1552 1553 1555 1556 1557 1558 1559 1559 1560 1561 1562 1562 1562 1563 1563 1564 1564 1565 1565 1565 1565 1565 1564 1564 1564 1564 1563 1562 1562 1561 1559 1559 1558
1500 1501 1505 1508 1505 1503 1502 1501 1503 1504 1502 1501 1503 1502 1502 1504 1508 1517 1526 1517 1510 1514 1514 1516 1524 1513 1498 1499 1501 1500 1501 1501 1502 1504 1505 1506 1510 1512 1515 1518 1520 1523 1526 1529 1531 1534 1537 1539 1541 1543 1545 1547 1549 1551 1552 1553 1554 1556 1556 1557 1558 1559 1560 1560 1561 1561 1562 1562 1563 1564 1564 1564 1564 1564 1564 1563 1563 1563 1562 1562 1561 1561 1559 1559 1558 1558
1501 1502 1506 1506 1500 1498 1501 1501 1502 1503 1504 1503 1502 1501 1502 1504 1504 1507 1512 1511 1512 1515 1512 1516 1522 1512 1499 1499 1500 1500 1502 1502 1504 1505 1506 1508 1510 1512 1515 1517 1520 1522 1525 1528 1530 1533 1535 1538 1540 1542 1544 1546 1548 1549 1550 1551 1553 1554 1555 1556 1557 1557 1559 1559 1560 1560 1560 1561 1562 1562 1563 1563 1563 1563 1563 1562 1562 1562 1561 1561 1560 1559 1558 1558 1558 1557
1503 1504 1506 1512 1511 1510 1509 1507 1507 1506 1505 1503 1500 1501 1502 1502 1504 1507 1507 1509 1515 1514 1512 1520 1523 1507 1497 1498 1498 1499 1501 1501 1503 1505 1506 1508 1510 1512 1515 1517 1519 1522 1524 1527 1529 1531 1534 1536 1538 1540 1542 1544 1546 1547 1548 1550 1551 1552 1553 1554 1555 1556 1557 1558 1558 1559 1559 1560 1561 1561 1562 1562 1562 1562 1561 1561 1561 1560 1560 1559 1558 1558 1557 1557 1557 1556
1501 1502 1504 1513 1519 1521 1519 1515 1511 1507 1502 1500 1500 1502 1503 1502 1505 1508 1508 1510 1517 1516 1512 1515 1515 1504 1496 1496 1496 1498 1500 1501 1503 1505 1506 1508 1510 1512 1514 1516 1519 1521 1523 1526 1528 1530 1532 1534 1536 1539 1540 1542 1544 1545 1546 1548 1549 1551 1552 1553 1554 1555 1556 1557 1557 1558 1558 1559 1560 1560 1560 1560 1560 1560 1560 1560 1560 1559 1559 1558 1557 1557 1556 1556 1556 1555
1500 1500 1501 1506 1508 1510 1510 1507 1505 1503 1500 1500 1502 1503 1504 1504 1504 1505 1507 1508 1510 1513 1510 1506 1507 1507 1500 1496 1496 1497 1499 1500 1502 1504 1506 1507 1510 1512 1513 1516 1518 1520 1522 1524 1526 1528 1530 1532 1535 1537 1538 1540 1542 1543 1545 1546 1548 1549 1550 1551 1552 1554 1555 1555 1556 1557 1557 1558 1558 1558 1558 1558 1558 1558 1558 1558 1558 1558 1557 1556 1556 1556 1556 1556 1555 1555
1500 1502 1502 1503 1503 1502 1502 1503 1503 1504 1502 1500 1500 1502 1504 1505 1506 1507 1509 1507 1505 1511 1512 1504 1504 1508 1503 1498 1497 1498 1498 1499 1500 1502 1504 1506 1509 1511 1513 1515 1517 1519 1521 1523 1525 1527 1528 1530 1533 1534 1536 1538 1539 1541 1543 1544 1546 1547 1548 1549 1550 1552 1553 1553 1554 1555 1556 1556 1556 1556 1556 1556 1556 1556 1556 1556 1556 1556 1556 1555 1555 1555 1555 1555 1554 1554
1498 1501 1503 1503 1504 1503 1503 1504 1504 1503 1502 1500 1499 1501 1502 1504 1507 1507 1506 1503 1504 1510 1510 1504 1504 1507 1503 1498 1497 1497 1498 1499 1500 1502 1504 1506 1508 1510 1512 1514 1515 1517 1519 1521 1523 1525 1527 1529 1531 1532 1534 1536 1537 1539 1540 1542 1544 1545 1546 1547 1548 1550 1551 1551 1552 1553 1553 1554 1554 1554 1554 1554 1554 1554 1554 1554 1554 1555 1554 1554 1554 1554 1554 1554 1554 1553
1498 1500 1502 1503 1503 1503 1503 1504 1504 1502 1501 1500 1498 1499 1500 1501 1502 1503 1502 1502 1504 1505 1503 1502 1506 1505 1499 1496 1496 1497 1499 1499 1501 1503 1504 1505 1507 1509 1510 1512 1514 1516 1518 1519 1522 1523 1525 1527 1529 1530 1532 1533 1535 1536 1538 1539 1541 1542 1544 1545 1546 1548 1548 1549 1550 1551 1551 1552 1552 1552 1552 1552 1552 1552 1552 1553 1553 1553 1553 1554 1554 1554 1554 1553 1553 1552
1500 1503 1504 1501 1502 1503 1503 1503 1503 1501 1500 1499 1497 1497 1498 1500 1501 1501 1502 1503 1505 1504 1501 1504 1507 1501 1495 1495 1496 1498 1500 1500 1501 1502 1503 1504 1506 1508 1509 1511 1512 1514 1516 1518 1520 1522 1524 1526 1527 1529 1530 1532 1533 1534 1536 1537 1539 1540 1542 1543 1544 1545 1546 1547 1548 1549 1550 1550 1549 1550 1550 1550 1550 1550 1551 1552 1552 1553 1553 1553 1553 1553 1553 1553 1552 1551
1499 1503 1503 1501 1504 1504 1501 1502 1503 1501 1500 1499 1498 1497 1498 1500 1501 1501 1501 1502 1503 1502 1503 1505 1503 1496 1493 1495 1496 1498 1499 1499 1500 1501 1502 1504 1505 1506 1508 1509 1511 1513 1514 1517 1519 1521 1523 1524 1526 1527 1528 1530 1531 1533 1534 1535 1537 1538 1540 1541 1542 1543 1544 1545 1546 1547 1547 1547 1547 1548 1547 1548 1548 1549 1550 1551 1551 1552 1552 1552 1552 1552 1552 1552 1551 1551
1496 1499 1499 1500 1505 1503 1499 1501 1502 1502 1505 1505 1499 1496 1497 1498 1498 1499 1499 1499 1499 1500 1501 1502 1497 1493 1493 1494 1495 1496 1497 1498 1498 1500 1501 1503 1504 1505 1507 1508 1509 1511 1513 1515 1517 1519 1521 1523 1524 1526 1527 1528 1530 1531 1533 1534 1535 1536 1537 1539 1540 1541 1542 1543 1544 1545 1545 1545 1545 1545 1545 1546 1547 1548 1549 1550 1550 1551 1551 1551 1551 1551 1551 1551 1550 1550
1497 1496 1496 1499 1503 1503 1500 1500 1502 1508 1513 1508 1497 1494 1497 1497 1497 1498 1497 1496 1496 1496 1496 1495 1493 1492 1494 1494 1494 1495 1496 1496 1498 1499 1501 1502 1503 1505 1506 1507 1508 1510 1512 1514 1516 1518 1520 1521 1523 1524 1525 1527 1528 1530 1531 1532 1533 1534 1535 1537 1538 1539 1540 1541 1542 1543 1543 1543 1543 1544 1544 1545 1546 1547 1548 1549 1549 1550 1550 1550 1550 1550 1550 1550 1549 1549
1497 1496 1497 1499 1501 1501 1498 1501 1512 1518 1509 1498 1495 1496 1498 1497 1497 1497 1495 1493 1493 1495 1494 1494 1492 1491 1491 1492 1493 1494 1495 1497 1498 1499 1500 1502 1503 1504 1505 1506 1508 1509 1511 1513 1515 1517 1518 1520 1522 1523 1524 1526 1527 1528 1529 1530 1531 1532 1534 1535 1536 1537 1538 1539 1540 1540 1541 1541 1542 1542 1543 1544 1545 1546 1547 1548 1548 1549 1549 1549 1549 1549 1549 1549 1548 1548
1495 1496 1498 1499 1501 1502 1501 1505 1516 1512 1497 1492 1497 1498 1497 1498 1497 1497 1497 1493 1491 1493 1493 1493 1491 1488 1489 1492 1493 1495 1496 1497 1498 1499 1500 1501 1502 1504 1505 1506 1507 1509 1510 1512 1514 1516 1517 1519 1520 1522 1523 1524 1525 1526 1528 1528 1529 1531 1532 1533 1534 1535 1536 1537 1538 1538 1539 1539 1540 1541 1542 1543 1544 1545 1546 1547 1547 1548 1548 1548 1548 1548 1548 1548 1547 1547
1492 1493 1495 1500 1504 1505 1503 1503 1503 1500 1496 1496 1497 1496 1495 1496 1495 1496 1497 1494 1491 1491 1492 1492 1490 1489 1490 1492 1493 1495 1496 1496 1496 1497 1499 1501 1502 1503 1505 1505 1506 1508 1510 1511 1513 1514 1516 1518 1519 1520 1522 1523 1524 1525 1525 1526 1527 1528 1529 1531 1532 1533 1534 1535 1536 1536 1537 1538 1539 1540 1541 1542 1543 1544 1545 1546 1546 1547 1547 1547 1547 1547 1547 1547 1547 1546
1492 1492 1493 1500 1505 1503 1503 1503 1503 1506 1508 1500 1494 1494 1494 1494 1493 1493 1495 1495 1492 1491 1492 1491 1490 1490 1491 1492 1494 1495 1496 1495 1494 1494 1497 1501 1502 1503 1504 1505 1507 1508 1509 1511 1512 1513 1515 1516 1518 1519 1520 1521 1522 1522 1523 1524 1525 1526 1527 1528 1529 1531 1532 1533 1534 1535 1536 1537 1538 1539 1540 1541 1542 1543 1544 1545 1545 1546 1546 1546 1546 1546 1546 1546 1546 1546
1493 1492 1490 1496 1501 1501 1503 1506 1508 1512 1508 1497 1492 1494 1494 1495 1494 1493 1496 1497 1493 1491 1492 1491 1490 1491 1491 1492 1494 1494 1493 1493 1492 1493 1497 1500 1501 1503 1504 1505 1507 1508 1509 1510 1511 1513 1514 1515 1516 1517 1518 1519 1520 1520 1521 1521 1522 1523 1524 1525 1527 1528 1529 1531 1532 1534 1535 1536 1537 1538 1539 1540 1541 1542 1543 1544 1544 1545 1545 1545 1545 1545 1545 1545 1545 1545
1494 1493 1492 1496 1498 1500 1503 1503 1502 1503 1499 1493 1493 1494 1494 1495 1493 1496 1505 1504 1494 1491 1493 1492 1491 1492 1492 1493 1494 1492 1491 1491 1493 1495 1498 1500 1501 1502 1504 1505 1506 1507 1508 1509 1510 1511 1513 1514 1515 1515 1516 1517 1517 1518 1518 1519 1519 1520 1521 1522 1524 1526 1527 1529 1531 1532 1533 1535 1535 1537 1538 1539 1540 1541 1542 1543 1543 1544 1544 1544 1544 1544 1544 1544 1544 1544
1494 1494 1495 1497 1495 1497 1503 1502 1498 1496 1494 1493 1493 1494 1494 1495 1495 1502 1508 1502 1493 1493 1494 1492 1492 1493 1493 1494 1493 1491 1492 1494 1495 1498 1499 1500 1501 1502 1502 1504 1505 1506 1507 1508 1509 1510 1511 1512 1513 1513 1514 1515 1516 1516 1516 1517 1517 1517 1518 1520 1522 1524 1526 1528 1529 1531 1532 1533 1534 1536 1537 1538 1539 1540 1541 1542 1542 1542 1543 1542 1543 1543 1543 1543 1543 1543
1495 1496 1498 1498 1495 1495 1498 1498 1497 1497 1495 1493 1494 1495 1495 1497 1499 1500 1500 1496 1494 1495 1494 1493 1494 1493 1494 1495 1494 1493 1495 1496 1497 1498 1499 1500 1501 1501 1502 1502 1503 1504 1505 1506 1507 1508 1509 1510 1511 1512 1513 1513 1514 1514 1514 1514 1515 1515 1517 1519 1521 1523 1525 1526 1528 1530 1531 1532 1533 1535 1536 1537 1538 1539 1540 1541 1541 1541 1541 1541 1542 1542 1542 1542 1542 1542
1491 1493 1495 1495 1495 1496 1498 1500 1504 1505 1498 1493 1494 1495 1495 1497 1497 1495 1494 1494 1495 1495 1494 1494 1495 1494 1495 1496 1495 1496 1497 1497 1498 1499 1499 1500 1500 1501 1501 1501 1501 1503 1503 1504 1505 1506 1507 1509 1510 1510 1511 1512 1512 1513 1513 1513 1514 1515 1517 1519 1520 1522 1524 1526 1527 1529 1530 1531 1532 1533 1535 1536 1537 1538 1539 1539 1540 1540 1540 1540 1541 1541 1541 1541 1541 1541
1488 1491 1492 1491 1491 1496 1500 1501 1501 1500 1495 1493 1494 1495 1495 1496 1496 1495 1495 1495 1495 1495 1495 1494 1494 1495 1495 1495 1496 1497 1497 1497 1498 1498 1498 1499 1500 1500 1501 1501 1501 1501 1502 1503 1504 1505 1506 1508 1509 1509 1510 1511 1511 1512 1512 1513 1514 1515 1517 1519 1520 1522 1524 1525 1527 1528 1529 1530 1531 1532 1534 1535 1536 1537 1538 1538 1538 1538 1539 1539 1540 1540 1540 1540 1540 1540
1491 1492 1493 1491 1490 1492 1495 1496 1494 1494 1494 1495 1496 1495 1495 1496 1496 1495 1496 1495 1495 1495 1495 1494 1495 1496 1495 1495 1496 1496 1496 1497 1497 1497 1498 1498 1498 1499 1499 1500 1500 1501 1501 1502 1503 1504 1506 1507 1508 1509 1510 1510 1511 1512 1512 1514 1515 1516 1517 1519 1520 1522 1523 1525 1526 1527 1528 1530 1530 1532 1533 1534 1535 1536 1536 1537 1537 1537 1537 1538 1539 1539 1539 1539 1539 1539
1493 1494 1492 1490 1489 1491 1493 1494 1494 1495 1496 1495 1496 1496 1496 1496 1495 1495 1495 1495 1495 1495 1495 1495 1496 1495 1495 1495 1496 1496 1496 1497 1496 1496 1497 1497 1497 1498 1498 1498 1499 1500 1500 1501 1503 1504 1505 1506 1507 1508 1509 1509 1511 1511 1512 1514 1515 1516 1518 1519 1520 1522 1523 1524 1525 1527 1528 1529 1530 1531 1532 1533 1534 1535 1535 1535 1536 1536 1536 1537 1537 1538 1538 1538 1538 1538
1493 1494 1492 1490 1490 1493 1496 1496 1495 1496 1498 1497 1497 1497 1496 1495 1495 1495 1494 1494 1494 1494 1494 1494 1495 1495 1495 1495 1495 1495 1496 1496 1496 1496 1496 1496 1496 1496 1496 1497 1497 1498 1499 1501 1502 1503 1504 1505 1506 1507 1508 1509 1510 1511 1512 1514 1515 1516 1518 1519 1520 1521 1522 1524 1525 1526 1527 1528 1529 1530 1531 1531 1532 1533 1534 1534 1534 1535 1535 1536 1536 1536 1537 1537 1537 1537
1495 1495 1493 1491 1490 1491 1494 1497 1498 1498 1499 1499 1498 1498 1497 1496 1495 1495 1494 1494 1493 1493 1493 1494 1494 1494 1495 1495 1496 1496 1496 1495 1495 1495 1495 1495 1495 1495 1495 1496 1496 1497 1498 1500 1501 1502 1503 1504 1505 1506 1507 1509 1509 1511 1512 1513 1514 1516 1517 1518 1519 1521 1522 1523 1524 1525 1526 1527 1527 1528 1529 1530 1531 1532 1532 1532 1533 1533 1534 1535 1535 1535 1535 1535 1535 1536
1500 1497 1497 1495 1492 1490 1492 1497 1499 1497 1496 1497 1499 1499 1498 1497 1496 1495 1495 1494 1493 1493 1493 1493 1493 1493 1494 1494 1495 1495 1496 1496 1496 1495 1495 1495 1494 1494 1495 1495 1495 1496 1498 1499 1500 1502 1503 1504 1505 1505 1507 1508 1509 1510 1511 1512 1514 1515 1516 1517 1519 1520 1521 1522 1523 1523 1524 1525 1526 1527 1528 1528 1529 1530 1530 1531 1532 1532 1533 1533 1533 1533 1533 1534 1534 1534
1502 1501 1500 1497 1494 1495 1500 1504 1503 1500 1498 1500 1501 1500 1499 1498 1497 1496 1495 1493 1493 1492 1492 1492 1492 1492 1492 1493 1493 1493 1494 1495 1495 1495 1495 1495 1494 1494 1494 1494 1495 1496 1497 1498 1500 1501 1502 1503 1504 1505 1506 1507 1508 1509 1510 1511 1513 1514 1515 1516 1517 1518 1519 1520 1521 1521 1522 1523 1524 1525 1526 1527 1527 1528 1528 1529 1530 1530 1530 1531 1531 1531 1531 1532 1532 1532
1507 1508 1507 1503 1501 1503 1506 1507 1507 1505 1504 1504 1504 1502 1500 1498 1498 1497 1495 1494 1493 1493 1492 1492 1492 1492 1491 1492 1492 1492 1492 1493 1493 1494 1494 1494 1494 1494 1494 1494 1494 1495 1496 1497 1499 1500 1501 1502 1503 1504 1505 1506 1507 1508 1509 1510 1512 1513 1514 1515 1516 1516 1517 1518 1519 1519 1520 1521 1521 1522 1523 1525 1525 1526 1527 1527 1528 1528 1528 1529 1529 1529 1530 1530 1530 1530